Tracking 29892 objects as of 21-Nov-2024
HD Live streaming from Space Station
objects crossing your sky now

OPS 6582 (TRANSIT 5E-5)

Track OPS 6582 (TRANSIT 5E-5) now!
10-day predictions
OPS 6582 (TRANSIT 5E-5) is classified as:


NORAD ID: 959
Int'l Code: 1964-083C
Perigee: 1,004.1 km
Apogee: 1,065.4 km
Inclination: 90.0 °
Period: 105.7 minutes
Semi major axis: 7405 km
RCS: 1.6198 m2 (large)
Launch date: December 13, 1964
Source: United States (US)
Launch site: AIR FORCE WESTERN TEST RANGE (AFWTR)
Your satellite tracking list
Your tracking list is empty




NASA's NSSDC Master Catalog

Two Line Element Set (TLE):
1 00959U 64083C   24325.72253646  .00000270  00000-0  33450-3 0  9992
2 00959  89.9989 186.9562 0041382 194.2918 207.1729 13.62220245972122
Source of the keplerian elements: AFSPC